[[{"header":{"parameterUnit":"m.s-1","parameterCategory":1,"la1":30.2991,"la2":30.254,"lo1":-89.0895,"lo2":-89.0444,"dy":0.0017,"dx":0.0017,"nx":28,"ny":28,"refTime":"2025-11-23T09:00:00:Z","depth":0,"parameterNumber":2,"parameterNumberName":"U-component_of_WINDS"},"data":[0,0,0,0,0,0,0,0,0,0,0,0,0,0,0,0,0,0,0,0,0,0,0,0,0,0,0,0,0,0,0,0,0,0,0,0,0,0,0,0,0,0,0,0,0,0,0,0,0,0,0,0,0,0,0,0,0,0,-2.1935,-2.1935,0,-2.1925,-2.1925,-2.1925,-2.1836,-2.1834,-2.1831,-2.1829,-2.1821,-2.1823,-2.1825,0,0,0,0,0,0,0,0,0,0,0,0,0,-2.1879,-2.188,-2.1935,-2.1935,-2.1935,-2.1925,-2.1925,-2.1925,-2.1836,-2.1833,-2.1831,-2.1828,-2.1821,-2.1823,-2.1825,0,0,0,0,0,0,0,0,0,0,0,0,0,-2.189,-2.1881,-2.1935,-2.1889,-2.1885,-2.1925,-2.1925,-2.1924,-2.1837,-2.1833,-2.183,-2.1827,-2.182,-2.1823,-2.1826,-2.1909,0,0,-2.1834,-2.1835,0,0,0,0,0,0,0,0,-2.1889,-2.1892,-2.1896,-2.1892,-2.1888,-2.1878,-2.1902,-2.1919,-2.1838,-2.1855,-2.1829,-2.1825,-2.1843,-2.1844,-2.1849,-2.1909,-2.1908,-2.1834,-2.1836,-2.1837,-2.1838,0,0,0,0,0,0,0,-2.1888,-2.1892,-2.1931,-2.1896,-2.1891,-2.187,-2.1868,-2.1905,-2.1868,-2.1853,-2.1847,-2.1847,-2.184,-2.1847,-2.1848,-2.1908,-2.1834,-2.1837,-2.1838,-2.1839,-2.2036,-2.2039,0,0,0,0,0,0,-2.1894,-2.1892,-2.1931,-2.193,-2.188,-2.1873,-2.1871,-2.1885,-2.1867,-2.1861,-2.185,-2.1843,-2.1844,-2.1845,-2.1848,-2.1945,-2.1837,-2.184,-2.1841,-2.2032,-2.2036,-2.204,0,0,0,0,0,0,-2.1893,-2.1898,-2.1932,-2.1909,-2.1912,-2.1878,-2.1894,-2.1886,-2.1893,-2.1864,-2.1858,-2.1863,-2.1841,-2.1844,-2.1894,-2.1943,-2.1841,-2.1844,-2.2028,-2.2033,-2.2038,-2.2139,0,0,0,0,0,0,-2.1892,-2.1898,-2.193,-2.1911,-2.1913,-2.1978,-2.1897,-2.1888,-2.1897,-2.1888,-2.1875,-2.187,-2.1839,-2.1891,-2.1897,-2.1945,-2.1846,-2.2023,-2.203,-2.2037,-2.2132,-2.2148,-2.2161,0,0,0,0,0,-2.189,-2.1959,-2.1932,-2.1937,-2.1952,-2.1981,-2.1983,-2.1945,-2.1902,-2.1933,-2.1915,-2.187,-2.1937,-2.1897,-2.1903,-2.1953,-2.202,-2.2028,-2.2036,-2.2125,-2.2144,-2.2161,0,0,0,0,0,0,-2.1986,-2.1956,-2.1925,-2.199,-2.1989,-2.1966,-2.2004,-2.1967,-2.1978,-2.197,-2.1922,-2.192,-2.1978,-2.197,-2.1926,-2.2033,-2.1971,-2.198,-2.2036,-2.2054,-2.2069,-2.207,-2.1848,0,0,0,0,0,-2.2014,-2.204,-2.2012,-2.2072,-2.2073,-2.2039,-2.2051,-2.2021,-2.2018,-2.2018,-2.2003,-2.2003,-2.2023,-2.2038,-2.2055,-2.2129,-2.2126,-2.2167,-2.2182,-2.2194,-2.2203,-2.2242,-2.226,-2.2066,-2.2066,-2.2066,0,0,-2.2074,-2.206,-2.208,-2.2091,-2.2087,-2.2115,-2.2039,-2.2073,-2.2094,-2.2023,-2.207,-2.2059,-2.2055,-2.2118,-2.2145,-2.2113,-2.2256,-2.2204,-2.2214,-2.2217,-2.2252,-2.2271,-2.2287,-2.2072,-2.2071,-2.207,0,0,-2.2197,-2.2189,-2.2238,-2.2235,-2.2229,-2.2205,-2.2217,-2.22,-2.219,-2.2236,-2.2183,-2.2208,-2.2244,-2.2244,-2.2248,-2.237,-2.233,-2.2377,-2.2455,-2.2493,-2.2509,-2.2522,-2.2566,-2.2583,-2.2386,-2.2386,-2.2386,0,-2.2272,-2.2312,-2.2268,-2.2305,-2.2312,-2.2248,-2.2297,-2.2296,-2.2297,-2.2303,-2.2267,-2.2311,-2.2304,-2.2366,-2.2396,-2.2401,-2.2414,-2.2379,-2.251,-2.2523,-2.2534,-2.2576,-2.2593,-2.2392,-2.2391,-2.2391,-2.239,0,-2.2405,-2.2433,-2.2474,-2.2475,-2.2486,-2.2529,-2.2492,-2.2509,-2.2478,-2.2459,-2.2506,-2.2495,-2.251,-2.2522,-2.2493,-2.258,-2.256,-2.2518,-2.2455,-2.256,-2.2598,-2.2614,-2.24,-2.2398,-2.2397,-2.2395,0,0,-2.259,-2.2565,-2.2581,-2.258,-2.2568,-2.259,-2.263,-2.2642,-2.2658,-2.266,-2.2693,-2.2725,-2.2685,-2.269,-2.266,-2.2694,-2.2792,-2.2647,-2.2646,-2.2675,-2.2888,-2.2921,-2.294,-2.2764,-2.2767,-2.277,-2.2889,0,-2.2709,-2.2776,-2.2737,-2.2809,-2.2836,-2.2774,-2.2809,-2.2806,-2.2789,-2.2809,-2.279,-2.2813,-2.2759,-2.2762,-2.2792,-2.2774,-2.2834,-2.2764,-2.2796,-2.2798,-2.28,-2.296,-2.2995,-2.3108,-2.2903,-2.2906,-2.2908,0,-2.2858,-2.2865,-2.294,-2.2922,-2.2932,-2.2964,-2.2972,-2.2992,-2.2987,-2.2972,-2.2977,-2.2939,-2.2977,-2.2914,-2.2967,-2.292,-2.2931,-2.2924,-2.2927,-2.293,-2.286,-2.2969,-2.3143,-2.3161,-2.2931,-2.2929,-2.2927,0,-2.2986,-2.3015,-2.3063,-2.3065,-2.3045,-2.3069,-2.3062,-2.3054,-2.3064,-2.3071,-2.3077,-2.3089,-2.3097,-2.3107,-2.3073,-2.303,-2.3131,-2.3065,-2.3121,-2.3122,-2.3146,-2.3145,-2.3327,-2.3151,-2.3151,-2.315,-2.315,0,-2.3124,-2.3173,-2.3121,-2.3151,-2.3204,-2.3158,-2.3212,-2.3198,-2.3191,-2.3218,-2.3166,-2.3192,-2.3145,-2.3167,-2.314,-2.3189,-2.3192,-2.3182,-2.3174,-2.3187,-2.3189,-2.3195,-2.3186,-2.3155,-2.3154,-2.3153,-2.3152,0,-2.3278,-2.3245,-2.3294,-2.3271,-2.3266,-2.3306,-2.3286,-2.3313,-2.3292,-2.3326,-2.3332,-2.3299,-2.3321,-2.3288,-2.3308,-2.329,-2.3357,-2.3337,-2.3358,-2.3353,-2.3411,-2.3407,-2.3604,-2.3628,-2.3436,-2.3438,-2.3439,0,-2.3369,-2.3405,-2.3385,-2.3399,-2.3395,-2.3418,-2.3427,-2.3383,-2.3396,-2.3392,-2.342,-2.3438,-2.3451,-2.349,-2.3468,-2.3483,-2.3464,-2.3532,-2.3466,-2.3478,-2.3466,-2.3465,-2.3469,-2.3546,-2.3548,-2.355,-2.3552,0,-2.3535,-2.3516,-2.3532,-2.3542,-2.3554,-2.356,-2.3562,-2.3576,-2.353,-2.3547,-2.3569,-2.3579,-2.3598,-2.3617,-2.3626,-2.3619,-2.3579,-2.3572,-2.3586,-2.3601,-2.3612,-2.3608,-2.3397,-2.3568,-2.3567,-2.3565,-2.3565,-2.3564,-2.3661,-2.369,-2.368,-2.3699,-2.3696,-2.3698,-2.3723,-2.3703,-2.3721,-2.3733,-2.3706,-2.3735,-2.3728,-2.3735,-2.3733,-2.3756,-2.3726,-2.3746,-2.3752,-2.3758,-2.3767,-2.3607,-2.3757,-2.3756,-2.3756,-2.3756,-2.3755,0,-2.3825,-2.3815,-2.3833,-2.3837,-2.3852,-2.381,-2.381,-2.3825,-2.3851,-2.3848,-2.3861,-2.3886,-2.3904,-2.3883,-2.3897,-2.3919,-2.3901,-2.3925,-2.3924,-2.3923,-2.3792,-2.3779,-2.3939,-2.3939,-2.3939,-2.3939,-2.3939,-2.3939,-2.3912,-2.3959,-2.3939,-2.3984,-2.3974,-2.4001,-2.4005,-2.4007,-2.4004,-2.4035,-2.4049,-2.4034,-2.4024,-2.4037,-2.4052,-2.4045,-2.4054,-2.4084,-2.4071,-2.395,-2.3932,-2.3915,-2.3903,-2.4086,-2.4086,-2.42,-2.4201,-2.4202]},{"header":{"parameterUnit":"m.s-1","parameterCategory":1,"la1":30.2991,"la2":30.254,"lo1":-89.0895,"lo2":-89.0444,"dy":0.0017,"dx":0.0017,"nx":28,"ny":28,"refTime":"2025-11-23T09:00:00:Z","depth":0,"parameterNumber":3,"parameterNumberName":"V-component_of_WINDS"},"data":[0,0,0,0,0,0,0,0,0,0,0,0,0,0,0,0,0,0,0,0,0,0,0,0,0,0,0,0,0,0,0,0,0,0,0,0,0,0,0,0,0,0,0,0,0,0,0,0,0,0,0,0,0,0,0,0,0,0,-4.0539,-4.0539,0,-4.0587,-4.0587,-4.0588,-4.0534,-4.0532,-4.053,-4.0528,-4.0573,-4.0576,-4.0579,0,0,0,0,0,0,0,0,0,0,0,0,0,-4.0397,-4.04,-4.0539,-4.0539,-4.054,-4.0586,-4.0587,-4.0588,-4.0534,-4.0532,-4.0529,-4.0527,-4.0572,-4.0576,-4.0579,0,0,0,0,0,0,0,0,0,0,0,0,0,-4.0453,-4.04,-4.0539,-4.0519,-4.0518,-4.0586,-4.0587,-4.0588,-4.0535,-4.0532,-4.0529,-4.0526,-4.0571,-4.0575,-4.058,-4.0669,0,0,-4.0594,-4.0596,0,0,0,0,0,0,0,0,-4.045,-4.0458,-4.0521,-4.052,-4.0519,-4.0551,-4.0553,-4.0615,-4.0536,-4.0528,-4.0528,-4.0524,-4.0568,-4.0573,-4.0588,-4.0671,-4.0673,-4.0594,-4.0597,-4.0599,-4.06,0,0,0,0,0,0,0,-4.0446,-4.0456,-4.0557,-4.0522,-4.0521,-4.0506,-4.0511,-4.0565,-4.0564,-4.0529,-4.0525,-4.0531,-4.0567,-4.0584,-4.0589,-4.0673,-4.0594,-4.0598,-4.0601,-4.0603,-4.0831,-4.0834,0,0,0,0,0,0,-4.0445,-4.0453,-4.0556,-4.0559,-4.0476,-4.0511,-4.0516,-4.0544,-4.0564,-4.0564,-4.0534,-4.0529,-4.0577,-4.0583,-4.059,-4.0695,-4.0599,-4.0603,-4.0606,-4.0827,-4.0831,-4.0835,0,0,0,0,0,0,-4.0442,-4.0455,-4.0554,-4.0505,-4.0516,-4.0517,-4.0548,-4.0547,-4.0563,-4.0568,-4.0567,-4.0552,-4.0575,-4.0584,-4.065,-4.0696,-4.0605,-4.061,-4.0823,-4.0829,-4.0833,-4.0906,0,0,0,0,0,0,-4.0438,-4.0454,-4.0489,-4.0506,-4.0519,-4.0614,-4.0551,-4.055,-4.0572,-4.0566,-4.0584,-4.0584,-4.0573,-4.0643,-4.0654,-4.07,-4.0613,-4.0819,-4.0826,-4.0831,-4.0899,-4.0913,-4.0924,0,0,0,0,0,-4.0433,-4.0507,-4.0491,-4.0504,-4.0563,-4.0617,-4.0625,-4.0612,-4.0576,-4.061,-4.0613,-4.0584,-4.0689,-4.065,-4.0662,-4.0711,-4.0816,-4.0824,-4.0831,-4.0894,-4.091,-4.0924,0,0,0,0,0,0,-4.0493,-4.0509,-4.0491,-4.0573,-4.0594,-4.0608,-4.0651,-4.063,-4.0661,-4.0653,-4.0635,-4.0639,-4.0709,-4.0716,-4.0673,-4.0797,-4.0747,-4.0757,-4.079,-4.0806,-4.0818,-4.0814,-4.0617,0,0,0,0,0,-4.0516,-4.056,-4.0571,-4.0642,-4.0654,-4.0651,-4.0674,-4.0662,-4.0683,-4.0691,-4.0699,-4.0719,-4.0756,-4.0781,-4.0816,-4.09,-4.0903,-4.0939,-4.0952,-4.0962,-4.0971,-4.1015,-4.1031,-4.0859,-4.0859,-4.0859,0,0,-4.0564,-4.0578,-4.0606,-4.0654,-4.0669,-4.0714,-4.0659,-4.0708,-4.0741,-4.0698,-4.0761,-4.0768,-4.0789,-4.0864,-4.0898,-4.0872,-4.1019,-4.0971,-4.0979,-4.0983,-4.1024,-4.104,-4.1055,-4.0864,-4.0863,-4.0862,0,0,-4.0673,-4.0689,-4.0749,-4.0766,-4.079,-4.0788,-4.0802,-4.082,-4.0822,-4.0886,-4.0855,-4.0892,-4.0958,-4.0974,-4.0991,-4.1106,-4.108,-4.1118,-4.1182,-4.1225,-4.1239,-4.125,-4.1291,-4.1306,-4.1126,-4.1127,-4.1127,0,-4.0729,-4.0796,-4.0782,-4.0835,-4.0856,-4.0821,-4.0881,-4.0898,-4.0932,-4.0946,-4.0918,-4.0999,-4.1011,-4.1089,-4.1117,-4.1132,-4.1147,-4.1115,-4.1238,-4.125,-4.1261,-4.1299,-4.1314,-4.1131,-4.113,-4.113,-4.113,0,-4.0863,-4.091,-4.0955,-4.0991,-4.1017,-4.1073,-4.1066,-4.1094,-4.108,-4.1081,-4.1145,-4.1158,-4.1194,-4.1212,-4.1199,-4.1288,-4.1272,-4.1241,-4.119,-4.1282,-4.1317,-4.1332,-4.1137,-4.1136,-4.1134,-4.1133,0,0,-4.1011,-4.1038,-4.1055,-4.107,-4.1094,-4.113,-4.1183,-4.122,-4.1245,-4.1269,-4.1312,-4.1369,-4.134,-4.1359,-4.1347,-4.1385,-4.1474,-4.1349,-4.1349,-4.1372,-4.1573,-4.1596,-4.1613,-4.1458,-4.146,-4.1462,-4.1571,0,-4.112,-4.1215,-4.1204,-4.1294,-4.1336,-4.1304,-4.135,-4.1369,-4.1371,-4.1406,-4.1407,-4.1447,-4.1407,-4.1418,-4.1454,-4.1456,-4.1515,-4.1448,-4.1497,-4.1498,-4.1492,-4.1632,-4.1656,-4.1758,-4.1585,-4.1587,-4.1589,0,-4.126,-4.1291,-4.1386,-4.1403,-4.142,-4.1463,-4.1495,-4.153,-4.155,-4.1548,-4.157,-4.1551,-4.1603,-4.1551,-4.1622,-4.1577,-4.1596,-4.16,-4.1604,-4.1607,-4.1549,-4.1638,-4.179,-4.1806,-4.1611,-4.1609,-4.1608,0,-4.1358,-4.1423,-4.1488,-4.1502,-4.1524,-4.1554,-4.1564,-4.1582,-4.1605,-4.1633,-4.1647,-4.1681,-4.1699,-4.1724,-4.1714,-4.1677,-4.1787,-4.1734,-4.1786,-4.1786,-4.181,-4.1808,-4.1966,-4.1823,-4.1823,-4.1823,-4.1822,0,-4.1481,-4.154,-4.1532,-4.1572,-4.1636,-4.1623,-4.1686,-4.1692,-4.1708,-4.1747,-4.1721,-4.1758,-4.1742,-4.1778,-4.177,-4.183,-4.1838,-4.1837,-4.1834,-4.1839,-4.1839,-4.1851,-4.1844,-4.1827,-4.1826,-4.1825,-4.1824,0,-4.1601,-4.1598,-4.1667,-4.1682,-4.1688,-4.1734,-4.1747,-4.1783,-4.1783,-4.1833,-4.1843,-4.1842,-4.1883,-4.1875,-4.192,-4.1914,-4.1989,-4.1977,-4.1982,-4.1979,-4.2031,-4.2026,-4.2202,-4.2224,-4.2067,-4.2069,-4.207,0,-4.1679,-4.1724,-4.1745,-4.177,-4.1783,-4.1823,-4.1847,-4.1834,-4.186,-4.1886,-4.1919,-4.1958,-4.1988,-4.2054,-4.2056,-4.2089,-4.2078,-4.2137,-4.2083,-4.2086,-4.2078,-4.2075,-4.2079,-4.2148,-4.215,-4.2151,-4.2152,0,-4.1818,-4.1815,-4.1851,-4.1886,-4.1915,-4.1942,-4.1966,-4.1987,-4.1977,-4.2006,-4.2048,-4.2072,-4.2118,-4.2156,-4.2187,-4.2195,-4.2172,-4.217,-4.2183,-4.2188,-4.2189,-4.2189,-4.2011,-4.2165,-4.2164,-4.2163,-4.2162,-4.2162,-4.1919,-4.1957,-4.1978,-4.2018,-4.2035,-4.2058,-4.2094,-4.2098,-4.2133,-4.217,-4.216,-4.2208,-4.2226,-4.2266,-4.2278,-4.2314,-4.2291,-4.2311,-4.2316,-4.2321,-4.2327,-4.2184,-4.2319,-4.2319,-4.2318,-4.2318,-4.2318,0,-4.2056,-4.2068,-4.2106,-4.2141,-4.2172,-4.2149,-4.2174,-4.2201,-4.2244,-4.2263,-4.2294,-4.2341,-4.2378,-4.2383,-4.2418,-4.2445,-4.2435,-4.2454,-4.2452,-4.2454,-4.2345,-4.233,-4.2462,-4.2462,-4.2462,-4.2462,-4.2462,-4.2462,-4.2131,-4.2194,-4.2193,-4.2264,-4.2275,-4.2322,-4.2338,-4.2359,-4.2374,-4.2429,-4.246,-4.2464,-4.2477,-4.2512,-4.2545,-4.2545,-4.2558,-4.2582,-4.2578,-4.2476,-4.2462,-4.2448,-4.2434,-4.2585,-4.2585,-4.2684,-4.2685,-4.2685]}]]